www.pogodaiklimat.ru
ПОГОДА в Крапине
Время
(UTC), дата
19 7.08
20 7.08
21 7.08
00 8.08
03 8.08
04 8.08
05 8.08
06 8.08
07 8.08
08 8.08
09 8.08
10 8.08
11 8.08
12 8.08
13 8.08
14 8.08
15 8.08
16 8.08
17 8.08
18 8.08
19 8.08
20 8.08
21 8.08
00 9.08
03 9.08
04 9.08
05 9.08
06 9.08
07 9.08
08 9.08
09 9.08
10 9.08
11 9.08
12 9.08
13 9.08
14 9.08
15 9.08
16 9.08
17 9.08
18 9.08
19 9.08
20 9.08
21 9.08
00 10.08
03 10.08
04 10.08
05 10.08
06 10.08
07 10.08
08 10.08
09 10.08
10 10.08
11 10.08
12 10.08
13 10.08
14 10.08
15 10.08
16 10.08
17 10.08
18 10.08
19 10.08
20 10.08
03 11.08
04 11.08
05 11.08
06 11.08
07 11.08
08 11.08
09 11.08
10 11.08
11 11.08
12 11.08
13 11.08
14 11.08
15 11.08
16 11.08
17 11.08
18 11.08
19 11.08
20 11.08
21 11.08
00 12.08
03 12.08
04 12.08
05 12.08
06 12.08
07 12.08
08 12.08
09 12.08
10 12.08
11 12.08
12 12.08
13 12.08
14 12.08
15 12.08
16 12.08
17 12.08
18 12.08
19 12.08
20 12.08
21 12.08
00 13.08
03 13.08
04 13.08
05 13.08
06 13.08
07 13.08
08 13.08
09 13.08
10 13.08
11 13.08
12 13.08
13 13.08
14 13.08
15 13.08
16 13.08
17 13.08
18 13.08
19 13.08
20 13.08
21 13.08
00 14.08
03 14.08
04 14.08
05 14.08
06 14.08
07 14.08
08 14.08
09 14.08
10 14.08
11 14.08
12 14.08
13 14.08
14 14.08
15 14.08
16 14.08
17 14.08
18 14.08
19 14.08
Ветер
(напр.,м/с)
Видим. Явления Облачность Т
(С)
Тd
(С)
f
(%)
Тe
(С)
Тes
(С)
Комфортность P
(гПа)
Po
(гПа)
Тmin
(С)
Tmax
(С)
R
(мм)
R24
(мм)
S
(см)
С 1 25 км 4/0
[Ci sp]
+24.5 +17.2 64 +28 +28 душно 1017.9 994.7
штиль 0 25 км 3/0
[Ci fib]
+22.1 +17.7 76 +27 +27 душно 1018.6 995.2
штиль 0 н/о н/о +21.1 +18.2 84 +25 +25 комфорт 1019.1 995.4
штиль 0 н/о н/о +19.5 +17.4 88 +22 +22 комфорт 1019.2 995.4
Ю 1 25 км 1/0
[Ci fib]
+18.8 +16.8 88 +21 +21 комфорт 1017.8 994.1
Ю 1 25 км 1/0
[Ci fib]
+18.3 +16.2 88 +20 +20 1018.0 994.3
В 1 25 км 1/0
[Ci fib]
+19.5 +16.4 82 +23 +24 комфорт 1019.4 995.7
СЗ 1 25 км 1/1 1000 м
[Sc Ci fib]
+22.8 +17.3 71 +28 +31 душно 1019.1 995.7 +18.2
В 1 25 км 3/3 1000 м
[Sc Ci fib]
+25.1 +16.7 60 +29 +34 душно 1019.2 996.0
З 1 25 км 3/3 1000 м
[Sc]
+26.8 +16.5 53 +30 +38 душно 1019.1 996.0
В 2 25 км 1/1 1000 м
[Sc]
+27.9 +18.1 55 +32 +44 душно 1018.9 995.9
СВ 2 25 км ясно +28.2 +17.8 53 +33 +48 очень
душно
1018.7 995.7
СВ 2 25 км 1/1 1000 м
[Sc]
+29.4 +19.2 54 +35 +50 очень
душно
1018.6 995.7
В 2 25 км ясно +30.2 +19.2 52 +36 +51 опасность
солнечного
удара
1018.4 995.6
СВ 2 25 км ясно +30.5 +18.7 49 +35 +48 очень
душно
1018.2 995.4
С 1 н/о н/о +31.2 +19.3 49 +37 +37 очень
душно
1018.2 995.3
С 2 н/о н/о +30.7 +17.8 46 +35 +35 очень
душно
1018.0 995.1
С 1 н/о н/о +30.4 +17.2 45 +34 +34 очень
душно
1017.9 994.9
штиль 0 н/о н/о +29.6 +17.8 49 +34 +34 очень
душно
1017.6 994.6
СВ 1 25 км ясно +26.9 +20.4 68 +33 +33 очень
душно
1017.5 994.5 +31.0
СВ 1 25 км ясно +23.4 +19.9 81 +30 +30 очень
душно
1018.0 994.7
С 1 25 км ясно +22.4 +19.0 81 +28 +28 душно 1018.2 994.8
СЗ 1 н/о н/о +21.2 +18.5 85 +26 +26 душно 1018.6 994.9
З 1 н/о н/о +20.4 +17.7 84 +25 +25 комфорт 1018.2 994.5
штиль 0 25 км ясно +18.4 +17.4 94 +19 +19 1017.8 994.1
СЗ 1 25 км ясно +18.0 +17.2 95 +19 +19 1017.9 994.2
З 1 25 км 1/0
[Ac cast]
+19.0 +17.3 90 +22 +23 комфорт 1017.9 994.2
штиль 0 25 км 1/0
[Ac cast]
+20.6 +18.0 85 +24 +28 комфорт 1017.9 994.4 +17.8
штиль 0 25 км 1/0
[Ac cast]
+23.6 +18.5 73 +28 +36 душно 1017.7 994.4
ЮЗ 1 25 км 1/0
[Ac trans]
+25.8 +18.1 62 +30 +41 душно 1017.4 994.3
Ю 1 25 км 1/1 1000 м
[Cu med, cong Ac trans]
+28.4 +19.6 59 +34 +48 очень
душно
1017.1 994.2
штиль 0 25 км 1/0
[Ac trans]
+29.2 +18.7 53 +34 +54 опасность
солнечного
удара
1016.7 993.9
С 1 25 км 1/1 1000 м
[Cu hum Ac trans]
+30.3 +18.5 49 +35 +52 опасность
солнечного
удара
1016.3 993.6
СВ 1 25 км 1/1 1000 м
[Cu hum Ac trans]
+31.0 +17.9 46 +35 +52 опасность
солнечного
удара
1015.9 993.2
В 1 25 км 5/1 1000 м
[Cu med, cong Ac cast]
+31.2 +18.4 47 +36 +45 очень
душно
1015.6 992.9
СЗ 1 н/о н/о +32.3 +17.8 42 +36 +36 очень
душно
1015.6 992.8
В 2 н/о н/о +30.1 +18.3 49 +35 +35 очень
душно
1015.3 992.4
СВ 1 н/о н/о +30.5 +19.6 52 +36 +36 очень
душно
1014.8 991.9
штиль 0 н/о н/о +29.7 +20.6 58 +37 +37 очень
душно
1014.6 991.7
С 1 25 км 1/0
[Ci fib]
+27.3 +20.5 66 +34 +34 очень
душно
1014.7 991.8 +32.0
СВ 1 25 км ясно +24.4 +20.5 79 +30 +30 очень
душно
1015.4 992.3
штиль 0 25 км ясно +22.6 +19.9 85 +29 +29 очень
душно
1015.9 992.6
СЗ 1 н/о н/о +22.1 +19.1 83 +28 +28 душно 1016.4 992.8
штиль 0 н/о н/о +19.3 +17.9 92 +21 +21 комфорт 1016.5 992.7
штиль 0 25 км ясно +17.8 +17.3 97 +18 +18 1016.1 992.4
штиль 0 3000 м дымка ясно +18.0 +17.3 96 +18 +18 1016.1 992.4
штиль 0 4000 м дымка ясно +18.4 +17.4 94 +19 +20 1016.4 992.7
штиль 0 25 км ясно +21.2 +18.5 85 +26 +30 душно 1016.1 992.7 +17.8
Ю 1 25 км ясно +23.2 +19.5 80 +30 +37 очень
душно
1016.0 992.7
З 1 25 км 1/1 1000 м
[Cu hum]
+25.5 +19.2 68 +31 +41 очень
душно
1015.7 992.6
ЮВ 1 25 км 1/1 1000 м
[Cu med, cong]
+28.0 +19.1 58 +33 +47 очень
душно
1015.3 992.4
В 1 25 км 1/1 1000 м
[Cu med, cong]
+29.2 +19.3 55 +35 +51 опасность
солнечного
удара
1015.1 992.3
ЮЗ 1 25 км 1/1 1000 м
[Cu med, cong]
+29.9 +18.8 51 +35 +52 опасность
солнечного
удара
1015.0 992.3
Ю 1 25 км 1/1 1000 м
[Cu med, cong]
+30.8 +16.8 43 +34 +50 очень
душно
1014.9 992.2
В 1 25 км 3/3 1000 м
[Cu med, cong]
+31.4 +17.2 43 +35 +46 очень
душно
1014.4 991.8
В 1 н/о н/о +31.7 +18.0 44 +36 +36 очень
душно
1014.4 991.6
В 1 н/о н/о +30.2 +17.7 47 +34 +34 очень
душно
1014.3 991.4
ЮВ 2 н/о н/о +30.3 +18.5 49 +35 +35 очень
душно
1013.9 991.0
СВ 1 н/о н/о +28.6 +19.3 57 +34 +34 очень
душно
1014.0 991.0
СВ 1 25 км 3/0
[Ci fib]
+25.7 +21.3 77 +33 +33 очень
душно
1014.1 991.1 +31.7
штиль 0 25 км 1/0
[Ci fib]
+24.2 +20.0 77 +30 +30 очень
душно
1014.9 991.7
СВ 1 25 км 1/0
[Ci fib]
+22.1 +19.6 86 +28 +28 душно 1015.5 992.2
З 1 25 км 4/0
[Ac trans Ci fib]
+18.6 +18.0 96 +21 +21 комфорт 1015.7 992.1
штиль 0 25 км 4/0
[Ac As Cc]
+18.2 +17.2 94 +19 +19 1016.1 992.4
штиль 0 25 км 3/0
[Ac trans Ci fib]
+19.2 +17.9 92 +21 +22 комфорт 1016.2 992.6
штиль 0 25 км 3/0
[Ac trans Cc]
+20.8 +18.7 88 +25 +28 комфорт 1016.6 993.1 +18.2
штиль 0 25 км 4/0
[Ac trans Cc]
+23.4 +19.7 80 +30 +38 очень
душно
1016.5 993.2
штиль 0 25 км 3/1 1000 м
[Cu hum Cc]
+26.0 +20.5 72 +32 +44 очень
душно
1016.4 993.4
ЮВ 1 25 км 3/1 1000 м
[Cu hum Ac trans Ci fib]
+27.8 +20.3 64 +34 +46 очень
душно
1016.2 993.3
штиль 0 25 км 3/1 1000 м
[Cu med, cong Ac trans Ci fib]
+28.8 +20.2 60 +35 +52 опасность
солнечного
удара
1016.2 993.4
СВ 1 25 км 5/3 1000 м
[Cu med, cong Ac trans Ci sp]
+30.0 +20.1 55 +36 +48 очень
душно
1016.1 993.4
ЮЗ 1 25 км 8/3 1000 м
[Cu med, cong Ac trans Ci sp]
+30.3 +19.1 51 +36 +44 очень
душно
1016.0 993.3
З 1 25 км гроза без осадков 9/3 1000 м
[Cb cap Ac As]
+28.4 +19.7 59 +34 +38 очень
душно
1016.0 993.1
З 2 н/о н/о +25.3 +18.6 66 +30 +30 душно 1016.4 993.1
З 2 н/о н/о +25.4 +18.9 67 +30 +30 душно 1016.5 993.2
С 2 н/о н/о +26.2 +17.1 57 +30 +30 душно 1016.5 993.3
ЮВ 1 н/о н/о +25.7 +19.2 67 +31 +31 очень
душно
1016.3 993.0
штиль 0 25 км 6/3 1000 м
[Cu Sc Ac trans]
+24.1 +19.5 75 +29 +29 душно 1016.0 992.8 +30.5
З 1 25 км 3/3 1000 м
[Sc Ac trans Ci fib]
+23.0 +19.3 80 +29 +29 очень
душно
1017.0 993.7
штиль 0 25 км 3/0
[Ac trans Ci sp]
+21.4 +19.6 89 +26 +26 душно 1017.3 993.9
штиль 0 н/о н/о +21.0 +18.8 87 +25 +25 комфорт 1018.2 994.5
Ю 1 н/о н/о +19.6 +18.2 92 +23 +23 комфорт 1017.6 993.8
штиль 0 25 км 5/3 1000 м
[Sc Ac trans Ci fib]
+18.4 +17.9 97 +19 +19 1017.5 993.8
штиль 0 25 км 4/3 1000 м
[Sc Ci fib]
+18.2 +17.4 95 +19 +19 1017.7 994.0
штиль 0 25 км 4/3 1000 м
[Cu Sc Ac trans Ci fib]
+18.6 +17.9 96 +20 +20 1018.1 994.4
штиль 0 25 км 3/1 1000 м
[Cu hum Ci fib]
+20.8 +18.5 87 +25 +28 комфорт 1017.9 994.4 +18.1
штиль 0 25 км 6/0
[Ci fib]
+22.8 +18.4 76 +28 +36 душно 1017.9 994.6
В 1 25 км 4/1 1000 м
[Cu hum Ci fib]
+24.8 +18.6 68 +29 +39 душно 1018.1 994.9
С 1 25 км 8/4 1000 м
[Cu Sc Ac trans Ci fib]
+25.8 +18.7 65 +31 +37 очень
душно
1018.2 995.1
ЮВ 1 25 км 3/1 1000 м
[Cu hum Ac trans Ci fib]
+26.6 +18.1 60 +31 +45 душно 1018.0 994.9
ЮВ 1 25 км 3/1 1000 м
[Cu med, cong Ci fib]
+27.9 +19.0 58 +33 +49 очень
душно
1017.6 994.7
СВ 1 25 км 5/3 1000 м
[Cu med, cong Ci sp]
+28.3 +18.6 56 +33 +45 очень
душно
1017.3 994.4
СВ 1 25 км 5/3 1000 м
[Cu med, cong Ci fib]
+28.2 +19.5 59 +34 +44 очень
душно
1016.8 993.9
СВ 1 н/о н/о +29.9 +19.1 52 +35 +35 очень
душно
1016.7 993.7
штиль 0 н/о н/о +29.9 +17.4 47 +34 +34 очень
душно
1016.6 993.6
В 2 н/о н/о +27.4 +18.8 59 +32 +32 очень
душно
1016.7 993.5
СВ 1 н/о н/о +26.5 +19.9 67 +32 +32 очень
душно
1016.6 993.4
СВ 1 25 км 3/1 1000 м
[Cu Sc Ci fib]
+25.1 +20.5 76 +31 +31 очень
душно
1016.5 993.4 +30.0
СВ 1 25 км 1/1 1500 м
[Sc]
+22.4 +20.0 86 +29 +29 очень
душно
1017.0 993.7
СВ 1 25 км 3/0
[Ac trans]
+21.4 +19.6 89 +26 +26 душно 1017.4 994.0
штиль 0 н/о н/о +20.7 +18.5 87 +24 +24 комфорт 1018.0 994.3
штиль 0 н/о н/о +19.4 +18.1 92 +21 +21 комфорт 1017.7 993.9
СВ 1 25 км 1/0
[Ci fib]
+18.2 +17.7 97 +20 +20 1017.8 994.1
штиль 0 25 км 3/0
[Ci fib]
+17.9 +16.9 94 +18 +18 1016.9 993.2
штиль 0 25 км 1/0
[Ci fib]
+18.8 +17.8 94 +20 +21 1016.8 993.2
штиль 0 22 км 1/0
[Ci fib]
+20.7 +18.7 88 +24 +28 комфорт 1016.8 993.3 +17.9
штиль 0 22 км 3/0
[Ci fib]
+23.5 +19.5 78 +29 +36 душно 1016.8 993.5
штиль 0 22 км 3/1 1000 м
[Cu hum Ac trans Ci fib]
+25.3 +19.4 70 +31 +41 очень
душно
1016.5 993.4
ЮВ 1 22 км 4/1 1000 м
[Cu hum Ac trans Ci fib]
+27.3 +20.2 65 +34 +45 очень
душно
1016.0 993.1
ЮВ 2 22 км 4/3 1000 м
[Cu hum Ac trans Cc]
+28.3 +20.7 63 +35 +45 очень
душно
1015.7 992.8
ЮВ 2 25 км 3/3 1000 м
[Cu hum Ac trans Ci fib]
+28.6 +20.6 62 +35 +46 очень
душно
1015.0 992.2
Ю 2 25 км 3/1 1000 м
[Cb cap Ac trans Ci fib]
+29.3 +18.5 52 +34 +46 очень
душно
1014.5 991.7
Ю 2 25 км 3/1 1000 м
[Cu hum Ac trans Ci sp]
+30.4 +19.3 52 +36 +46 очень
душно
1013.7 991.0
ЮЗ 2 н/о н/о +30.7 +17.8 46 +35 +35 очень
душно
1013.3 990.5
Ю 2 н/о н/о +30.4 +18.9 50 +36 +36 очень
душно
1012.7 989.9
Ю 1 н/о н/о +29.9 +19.4 53 +36 +36 очень
душно
1012.4 989.5
Ю 1 н/о н/о +28.7 +19.4 57 +34 +34 очень
душно
1011.6 988.7
СВ 1 25 км 5/1 1000 м
[Sc diur, vesp As op Ci sp]
+26.4 +20.6 70 +33 +33 очень
душно
1012.0 989.1 +30.6
СВ 1 25 км зарница 8/3 1000 м
[Cb cap As op Cs]
+24.3 +21.3 83 +31 +31 очень
душно
1012.9 989.8
С 3 25 км зарница 9/5 1000 м
[Cb cap As op]
+24.1 +16.5 63 +28 +28 душно 1013.7 990.5
СЗ 3 н/о н/о +23.1 +15.7 63 +27 +27 душно 1014.4 991.0
СЗ 1 н/о н/о +20.0 +16.9 82 +24 +24 комфорт 1014.7 991.0
СЗ 1 25 км 9/9 1000 м
[Sc]
+19.0 +17.6 92 +22 +22 комфорт 1014.1 990.5
штиль 0 25 км 8/6 1000 м
[Sc Ac trans]
+19.1 +17.5 90 +21 +21 комфорт 1014.3 990.7
штиль 0 25 км 6/3 1000 м
[Sc Ac trans Ci sp]
+19.0 +17.3 90 +20 +21 1014.3 990.7
В 1 30 км 3/1 1000 м
[Sc Ac trans Ci fib]
+21.4 +17.7 79 +26 +28 душно 1014.4 991.0 +18.5
ЮЗ 1 30 км 3/1 1000 м
[Sc Ac trans Ci fib]
+23.4 +18.0 72 +29 +35 душно 1014.2 991.0
штиль 0 30 км 6/3 1000 м
[Cu Sc Ac trans Ci fib]
+24.4 +17.3 65 +28 +35 душно 1014.2 991.0
В 1 30 км 3/3 1000 м
[Cu med, cong Ac trans Ci fib]
+25.9 +18.0 62 +30 +41 душно 1013.9 990.9
штиль 0 30 км 6/3 1000 м
[Cu med, cong Ac und]
+27.0 +17.9 57 +31 +41 душно 1013.5 990.6
Ю 1 30 км 4/3 1000 м
[Cu med, cong Ac trans Ci fib]
+27.6 +17.6 54 +32 +44 очень
душно
1013.1 990.2
СВ 1 30 км 4/3 1000 м
[Cu med, cong Ac trans Ci sp]
+28.4 +17.9 53 +33 +44 очень
душно
1012.5 989.7
В 2 30 км 6/5 600 м
[Cu med, cong Ci sp]
+28.8 +18.0 52 +33 +39 очень
душно
1012.0 989.2
В 1 н/о н/о +28.9 +18.1 52 +34 +34 очень
душно
1011.5 988.6
З 1 н/о н/о +27.6 +18.1 56 +32 +32 очень
душно
1011.5 988.5
З 1 н/о н/о +26.9 +18.8 61 +32 +32 очень
душно
1011.6 988.5
штиль 0 н/о н/о +25.9 +20.5 72 +32 +32 очень
душно
1011.0 987.9
З 1 25 км 8/4 1000 м
[Cu Sc Ac As Cc]
+24.6 +21.0 80 +31 +31 очень
душно
1011.5 988.5 +29.1
З 2 25 км гроза без осадков 10/10 600 м
[Cb cap]
+23.0 +19.4 80 +29 +29 очень
душно
1013.1 989.9
Местоположение метеостанции Крапина (Хорватия): широта 46.13 долгота 15.88 высота над уровнем моря 203 м.
В архиве по умолчанию представлена погода в Крапине за последнюю неделю. Архивные данные за месяц целиком и за предыдущие месяцы, начиная с января 2011 года, Вы можете получить, выбрав интересующий диапазон дат из раскрывающегося списка и нажав кнопку "Найти!".
*Определитесь, кто Вы:
Внимание! Время в таблицах - всемирное. Для получения местного времени необходимо прибавить поправку, которая равна 1 ч.
Смотрите также архив погоды в соседних городах и на ближайших метеорологических станциях:
Партнеры нашего сайта:      
Пояснения к столбцам:
  • Ветер - указаны скорость ветра в м/с - средняя за 10 мин, порывы в срок и между сроками (в фигурных скобках) и направление, откуда дует ветер: С - северный,
  • СВ - северо-восточный, В - восточный, ЮВ - юго-восточный, Ю - южный, ЮЗ - юго-западный, З - западный, СЗ - северо-западный.
  • Видимость - горизонтальная дальность видимости в метрах или километрах. При видимости от 1 до 10 км при отсутствии осадков обычно наблюдается дымка, при ухудшении видимости до 1 км и менее - туман. В сухую погоду видимость может ухудшаться дымом, пылью или мглою.
  • Явления - указаны атмосферные явления, наблюдавшиеся в срок или в последний час перед сроком; фигурными скобками обозначены явления, наблюдавшиеся между сроками (за 1-3 часа до срока); квадратными скобками обозначены град или гололедные отложения с указанием их диаметра в мм.
  • Облачность - указаны через наклонную черту общая и нижняя облачность в баллах и высота нижней границы облаков в метрах; квадратными скобками обозначены формы облаков: Ci - перистые, Cs - перисто-слоистые, Cc - перисто-кучевые, Ac - высококучевые, As - высокослоистые, Sc - слоисто-кучевые, Ns - слоисто-дождевые, Cu - кучевые, Cb - кучево-дождевые. Подробнее классификацию облаков см. в Атласе облаков (PDF).
  • T - Температура воздуха - температура, измеренная на высоте 2 м над землей.
  • Td - Температура точки росы - температура, при понижении до которой содержащийся в воздухе водяной пар достигнет насыщения.
  • f - Относительная влажность воздуха - влажноcть воздуха, измеренная на высоте 2 м над землей.
  • Te - Эффективная температура - температура, которую ощущает одетый по сезону человек в тени. Характеристика душности погоды. При расчете учитывается влияние влажности воздуха и скорости ветра на теплоощущения человека.
  • Tes - Эффективная температура на солнце - температура, которую ощущает человек, с поправкой на солнечный нагрев. Характеристика знойности погоды. Зависит от высоты солнца над горизонтом, облачности и скорости ветра. Ночью, в пасмурную погоду, а также при ветре 12 м/с и более поправка равна нулю.
  • P - Атмосферное давление - приведенное к уровню моря атмосферное давление.
  • Po - Атмосферное давление - измеренное на уровне метеостанции атмосферное давление.
  • Tmin - Минимальная температура - минимум температуры воздуха на высоте 2 м над землей.
  • Tmax - Максимальная температура - максимум температуры воздуха на высоте 2 м над землей.
  • R - Количество осадков - Количество выпавших осадков за период времени, мм. При наведении курсора мыши на число - период времени, за который выпало указанное количество осадков.
  • R24 - Количество осадков - Количество выпавших осадков за 24 часа, мм.
  • S - Снежный покров - Высота снежного покрова, см. При наведении курсора мыши на число - состояние снежного покрова и степень покрытия местности в баллах.